レモン彗星

P/2013 TL117 ( Lemmon )

English version
Home page
Updated on May 7, 2015

---------------------------------------------------------------------

・ プロフィール

発見日 2013年10月4日
発見光度 20.1等
発見者 J. A. Johnson (Mount Lemmon Survey)

・ 写真集

・ 軌道要素

Epoch 2014 Mar. 4.0 TT = JDT 2456720.5
T 2014 Feb. 18.21810 TT                                 MPC
q   1.1176736            (2000.0)            P               Q
n   0.14402321     Peri.  112.19973     -0.43073581     -0.90242765
a   3.6045223      Node     3.36047     +0.75645204     -0.36678474
e   0.6899246      Incl.    9.36572     +0.49218591     -0.22603824
P   6.84
From 490 observations 2013 Oct. 4-2014 May 24, mean residual 0".5.

・ 星図

・ 光度変化

        m1 = 17.0 + 5 logΔ + 10.0 log r

---------------------------------------------------------------------

軌道要素はM.P.E.C. 2014-L52に掲載されたものです。
星図はステラナビゲータ Ver.8 (アストロアーツ) で作成したものです。
光度グラフはComet for Windowsで作成したものです。

---------------------------------------------------------------------

Copyright(C) Seiichi Yoshida (comet@aerith.net). All rights reserved.